KC4LW Weather Reports


Display with metric or nautical units.
time (UTC)temp
F
wind
direction
speed
MPH
gust
MPH
rain 1hr
in
rain 24hr
in
rain mn
in
humidity
%
barometer
mb
20260505214556 76 128 3.0 8.0 0.00 0.00 0.00 64 1014.5
20260505213059 76 114 4.0 11.0 0.00 0.00 0.00 62 1014.7
20260505211556 77 64 3.0 11.0 0.00 0.00 0.00 60 1014.5
20260505210056 76 74 4.0 10.0 0.00 0.00 0.00 61 1014.8
20260505204601 77 26 3.0 14.0 0.00 0.00 0.00 59 1014.9
20260505203102 77 76 5.0 11.0 0.00 0.00 0.00 58 1014.9
20260505201553 77 98 3.0 13.0 0.00 0.00 0.00 60 1015.4
20260505200051 77 115 4.0 13.0 0.00 0.00 0.00 61 1015.3
20260505194604 78 87 4.0 13.0 0.00 0.00 0.00 59 1015.6
20260505193052 79 182 3.0 12.0 0.00 0.00 0.00 57 1015.6
20260505191553 79 124 2.0 12.0 0.00 0.00 0.00 58 1015.6
20260505190055 78 36 3.0 13.0 0.00 0.00 0.00 57 1015.8
20260505184552 79 81 4.0 11.0 0.00 0.00 0.00 58 1016.1
20260505183101 79 51 1.0 11.0 0.00 0.00 0.00 59 1016.1
20260505181556 78 96 2.0 8.0 0.00 0.00 0.00 58 1016.1
20260505180059 79 61 2.0 10.0 0.00 0.00 0.00 61 1016.2
20260505174552 78 100 4.0 12.0 0.00 0.00 0.00 61 1016.5
20260505173052 78 88 4.0 11.0 0.00 0.00 0.00 60 1016.4
20260505171556 78 90 2.0 9.0 0.00 0.00 0.00 60 1016.4
20260505170056 78 98 5.0 11.0 0.00 0.00 0.00 59 1016.7
20260505164601 79 157 2.0 8.0 0.00 0.00 0.00 59 1016.9
20260505163101 79 240 2.0 8.0 0.00 0.00 0.00 58 1016.8
20260505161558 78 46 3.0 9.0 0.00 0.00 0.00 61 1017.0
20260505153115 79 0 2.0 7.0 0.00 0.00 0.00 58 1017.0
20260505151605 77 80 2.0 11.0 0.00 0.00 0.00 60 1016.8
20260505140106 76 119 4.0 10.0 0.00 0.00 0.00 67 1016.7
20260505124556 68 0 0.0 3.0 0.00 0.01 0.00 88 1016.2
20260505123103 64 0 0.0 1.0 0.00 0.01 0.00 96 1016.1
20260505121553 62 0 0.0 2.0 0.00 0.01 0.00 96 1016.1
20260505120052 60 0 0.0 0.0 0.00 0.01 0.00 96 1015.8
20260505114549 59 0 0.0 0.0 0.00 0.01 0.00 96 1015.6
20260505113055 58 0 0.0 0.0 0.00 0.01 0.00 95 1015.8
20260505111555 58 0 0.0 2.0 0.00 0.01 0.00 95 1015.7
20260505101552 57 0 0.0 0.0 0.00 0.02 0.00 94 1015.0
20260505100054 58 0 0.0 0.0 0.00 0.02 0.00 94 1015.0
20260505094553 58 0 0.0 0.0 0.00 0.02 0.00 93 1014.9
20260505093054 58 88 0.0 0.0 0.00 0.02 0.00 93 1014.7
20260505091559 58 0 0.0 0.0 0.00 0.02 0.00 92 1014.5
20260505090059 58 0 0.0 0.0 0.00 0.02 0.00 92 1014.6
20260505084552 58 0 0.0 0.0 0.00 0.02 0.00 92 1014.5
20260505083054 59 0 0.0 0.0 0.00 0.02 0.00 91 1014.5
20260505081559 59 0 0.0 0.0 0.00 0.02 0.00 90 1014.3
20260505080052 59 0 0.0 0.0 0.00 0.02 0.00 90 1014.4
20260505074605 59 0 0.0 0.0 0.00 0.02 0.00 89 1014.5
20260505073054 60 0 0.0 0.0 0.00 0.02 0.00 89 1014.5
20260505071556 60 0 0.0 0.0 0.00 0.02 0.00 88 1014.7
20260505070057 60 0 0.0 0.0 0.00 0.02 0.00 86 1014.7
20260505064556 61 0 0.0 0.0 0.00 0.02 0.00 84 1014.8
20260505063100 61 0 0.0 0.0 0.00 0.02 0.00 83 1015.0
20260505061625 62 0 0.0 0.0 0.00 0.02 0.00 81 1015.2
20260505060059 63 0 0.0 0.0 0.00 0.02 0.00 79 1015.4
20260505054611 64 0 0.0 0.0 0.00 0.02 0.00 78 1015.5
20260505053059 65 0 0.0 1.0 0.00 0.02 0.00 76 1015.7
20260505051553 65 0 0.0 0.0 0.00 0.02 0.00 75 1015.9
20260505041554 68 92 0.0 3.0 0.00 0.02 0.00 71 1016.3
20260505034604 68 71 0.0 3.0 0.00 0.02 0.02 71 1016.3
20260505033103 68 80 1.0 6.0 0.00 0.02 0.02 71 1016.3
20260505031601 69 107 1.0 7.0 0.00 0.02 0.02 71 1016.3
20260505024609 69 80 2.0 7.0 0.00 0.02 0.02 70 1016.2
20260505023057 69 93 2.0 6.0 0.00 0.02 0.02 70 1016.2
20260505021612 69 62 2.0 9.0 0.00 0.02 0.02 71 1016.3
20260505020100 69 117 2.0 9.0 0.00 0.02 0.02 70 1016.2
20260505014558 69 83 2.0 7.0 0.00 0.02 0.02 70 1016.1
20260505013057 69 73 3.0 8.0 0.00 0.02 0.02 71 1016.1
20260505011555 69 80 2.0 9.0 0.00 0.02 0.02 71 1016.0
20260505010054 69 111 2.0 7.0 0.00 0.02 0.02 70 1015.9
20260505004559 70 62 2.0 7.0 0.00 0.02 0.02 70 1015.8
20260505003056 70 89 3.0 7.0 0.00 0.02 0.02 70 1015.8
20260505001553 70 99 1.0 8.0 0.00 0.02 0.02 70 1015.8
20260505000057 71 121 2.0 7.0 0.00 0.02 0.02 69 1015.6
20260504234553 71 114 2.0 10.0 0.00 0.02 0.02 68 1015.4
20260504233100 71 76 4.0 11.0 0.00 0.02 0.02 67 1015.5
20260504231551 72 117 2.0 9.0 0.00 0.02 0.02 67 1015.2
20260504230053 72 61 4.0 10.0 0.00 0.02 0.02 67 1015.3
20260504224553 73 65 2.0 10.0 0.00 0.02 0.02 67 1015.4
20260504223103 73 89 2.0 10.0 0.00 0.02 0.02 66 1015.3
20260504221604 73 94 3.0 8.0 0.00 0.02 0.02 65 1015.5
20260504220134 74 113 3.0 11.0 0.00 0.02 0.02 65 1015.3